GFSNE_con_sbcape_132.txt.gz
CAPE
1163 1854 1821 1853 1703 1181 872 788 764 165 631 191 229 78 260 120 21 8 18 0 0 0 0 0 0 0 3 0 0 7 12 20 48 70 94 122 148 134
1117 1256 1947 1835 1367 1248 777 618 555 679 151 379 192 112 10 12 5 5 1 0 0 0 0 0 0 0 0 0 1 1 6 5 27 76 83 85 69 7
386 579 879 1171 1208 1103 907 686 546 356 312 371 76 45 24 19 11 6 0 0 0 0 0 0 0 0 0 0 0 0 0 5 8 47 35 24 12 6
223 110 144 460 689 487 177 272 476 138 30 209 136 61 26 11 13 3 0 0 0 1 0 0 0 0 0 0 0 0 0 0 0 0 0 0 0 4
130 58 20 369 495 415 30 42 158 5 3 8 65 39 13 14 1 0 0 2 0 0 1 1 0 0 0 0 0 0 0 0 0 0 0 0 0 0
108 301 53 93 445 347 13 32 34 3 2 3 17 14 3 3 0 1 0 0 1 1 0 0 0 0 0 0 0 0 0 0 0 0 0 0 0 0
70 114 43 9 11 53 3 33 23 7 3 5 8 10 3 2 0 2 0 0 1 1 1 1 0 0 0 0 0 0 0 0 0 1 0 0 0 0
100 35 26 0 0 0 0 0 1 11 4 2 10 10 2 1 2 1 0 0 0 0 0 0 0 0 0 1 0 0 1 1 2 2 1 1 1 1
152 41 22 2 0 0 1 0 0 0 0 2 16 10 1 2 1 0 0 0 0 0 0 0 1 0 1 2 3 5 5 5 4 3 2 2 1 0
42 58 27 5 0 0 0 0 0 0 0 0 32 24 2 3 1 0 0 0 0 0 0 0 1 1 0 1 6 6 5 6 5 3 3 2 1 0
22 14 10 10 0 1 0 0 1 1 0 1 1 0 0 0 0 0 0 0 0 0 1 0 1 2 2 2 1 6 6 5 4 3 3 3 1 0
0 4 0 10 0 1 0 0 0 0 1 1 1 1 1 0 0 0 0 0 0 0 0 0 1 1 1 3 3 2 2 5 6 7 4 2 0 0
1 1 1 1 2 1 0 0 0 0 1 0 0 0 0 1 1 1 0 0 0 0 0 0 0 2 1 3 4 4 3 5 5 7 6 3 1 0
1 1 0 2 1 1 1 1 1 0 0 0 0 0 0 0 0 0 0 0 0 0 0 0 0 0 1 1 0 2 3 3 2 3 2 5 0 0
0 0 0 0 0 1 1 0 0 0 0 0 0 1 1 1 1 0 0 0 0 0 0 0 0 0 0 0 1 1 0 3 4 6 7 1 0 0
0 0 0 0 0 0 0 0 0 0 0 0 0 0 0 0 1 0 0 0 0 0 0 0 0 0 0 0 0 0 1 2 6 10 9 0 0 0
0 0 0 0 0 0 0 0 0 0 0 1 1 0 0 0 0 0 0 0 0 0 0 0 0 0 1 0 1 3 4 7 11 8 1 0 0 0
0 1 0 0 0 0 0 0 0 0 0 0 0 0 0 0 0 0 0 0 0 0 1 0 0 0 0 0 4 6 9 9 4 0 0 0 0 0
0 0 0 0 0 0 0 0 0 0 0 0 0 0 0 0 0 0 0 0 1 1 1 2 4 3 2 3 5 0 5 0 0 0 0 0 0 0
6 1 0 1 0 0 0 0 0 0 0 0 0 0 0 0 1 1 0 0 0 1 3 4 5 5 3 3 6 3 0 1 4 2 0 0 0 0
7 5 6 9 9 5 3 0 0 0 0 0 1 0 1 2 2 3 5 7 7 3 2 1 1 0 3 4 6 2 0 0 0 4 0 0 0 0
8 5 4 4 5 7 7 6 3 3 2 3 4 5 8 8 10 9 8 6 3 2 0 0 0 0 0 0 2 5 1 0 0 0 0 0 1 1
8 7 4 4 4 4 7 11 9 10 9 10 12 8 12 13 10 10 8 4 2 1 0 0 0 0 0 0 0 2 2 0 0 0 1 0 0 0

GFSNE_con_sbcape_135.txt.gz
CAPE
537 983 1050 1170 1395 1431 1331 1159 1070 787 985 1022 842 775 653 297 35 23 58 0 0 0 0 0 0 0 15 16 0 4 19 20 15 15 19 16 85 162
980 1271 1242 1045 1335 1627 1542 1420 1261 1053 390 696 824 224 217 209 56 9 18 2 1 0 0 0 0 0 0 0 0 4 3 10 8 9 18 46 107 147
1227 989 852 1081 1086 1430 1366 1385 1318 1185 665 1040 578 476 63 166 2 2 41 8 0 0 0 0 0 0 0 0 0 0 0 3 8 3 14 37 82 130
548 629 659 711 876 952 889 1026 1318 1213 1067 1040 1093 512 332 246 48 3 8 0 0 1 0 0 0 0 0 0 0 0 0 0 0 4 0 5 32 28
485 232 374 432 479 684 530 456 761 867 993 976 852 777 89 144 0 0 0 0 1 1 1 0 0 0 0 0 0 0 0 0 0 0 0 3 0 0
28 351 510 337 209 588 686 369 428 633 683 282 457 377 1 1 0 1 0 0 0 0 0 0 1 1 1 0 0 0 0 0 0 0 0 0 0 0
21 24 167 294 94 223 415 249 215 196 228 54 36 7 0 0 0 0 0 0 0 0 0 0 0 0 0 1 0 0 0 1 1 1 1 0 0 0
9 2 100 3 0 0 0 22 198 37 5 4 2 1 0 0 1 0 1 0 0 0 0 0 0 0 0 0 0 1 1 1 0 0 0 0 0 0
5 7 3 49 5 220 0 0 0 0 0 0 4 0 3 1 0 1 0 0 0 0 0 0 0 0 0 0 0 0 0 0 0 0 0 0 0 0
6 11 4 18 43 6 28 0 0 0 0 0 0 0 0 0 3 0 0 0 0 0 0 0 0 0 0 0 3 4 3 4 4 3 3 3 2 1
7 13 13 48 47 0 8 0 1 1 1 0 0 0 0 0 0 0 0 0 0 0 0 0 0 1 1 0 1 5 5 4 4 4 4 3 2 2
5 5 9 9 65 1 0 0 0 0 1 1 1 1 0 0 0 0 0 0 0 0 0 0 0 0 1 1 0 0 0 4 4 4 4 4 4 1
3 0 1 0 1 2 1 0 0 0 1 0 1 1 1 1 0 1 0 0 0 0 0 0 0 1 1 2 4 2 1 2 2 3 6 6 5 0
2 1 0 0 1 1 1 0 1 1 0 0 0 1 1 0 0 0 0 0 0 0 0 0 0 0 0 1 0 1 1 1 1 1 2 4 5 3
3 2 1 1 0 0 1 1 1 0 0 0 0 0 0 0 0 0 0 0 0 0 0 0 0 0 0 0 0 0 0 0 1 0 0 1 1 1
5 5 1 0 0 1 0 0 0 0 0 0 0 0 0 0 0 0 0 0 0 0 0 0 0 0 0 0 0 0 0 0 1 1 1 2 5 0
4 1 0 1 0 0 0 0 0 0 0 0 0 0 0 0 0 0 0 0 0 0 0 0 0 0 0 0 0 0 0 0 1 3 6 4 0 0
11 7 1 1 0 1 0 0 0 0 0 0 0 0 0 0 0 0 0 0 0 0 0 0 0 0 0 0 4 0 1 2 4 8 11 4 2 6
22 21 14 1 0 0 0 0 0 0 0 0 0 0 0 0 0 0 0 0 0 0 0 0 0 0 0 0 1 1 2 3 4 4 3 8 7 3
24 17 11 8 0 0 0 0 0 0 0 0 0 0 0 0 0 0 0 0 0 0 0 0 1 0 0 0 0 1 4 8 6 7 5 0 0 0
25 13 7 7 9 6 8 4 0 1 0 0 0 0 0 0 0 0 0 0 0 0 0 0 0 0 2 3 2 2 2 0 0 6 4 3 0 0
23 17 7 3 3 4 8 8 5 4 1 1 1 0 1 1 2 1 1 0 0 1 3 6 7 6 5 4 3 0 0 0 0 0 0 0 0 5
14 14 11 7 3 2 5 5 6 4 2 2 3 3 4 4 4 4 3 4 3 3 2 1 3 3 5 4 4 7 1 0 0 0 0 0 0 0

GFSNE_con_sbcape_138.txt.gz
CAPE
1 170 450 196 474 349 164 126 39 6 83 266 279 355 153 25 2 0 0 0 0 0 0 0 0 0 0 0 1 30 53 39 34 8 10 0 24 42
170 237 270 379 489 669 683 775 445 174 100 218 247 278 141 66 0 0 1 0 1 1 1 0 0 0 0 0 0 4 28 45 34 16 10 0 8 57
323 282 390 613 645 590 632 698 748 574 525 412 282 216 155 19 0 1 0 0 0 1 1 0 0 0 0 0 0 0 9 20 12 14 10 19 19 48
707 776 689 575 527 477 499 700 811 656 635 344 369 180 39 22 0 0 0 0 0 1 1 1 0 1 1 0 0 0 0 0 0 0 5 4 15 38
119 230 315 432 489 476 367 523 675 657 539 471 300 235 27 29 0 0 0 1 0 0 1 1 1 1 1 1 1 0 0 0 0 0 0 0 6 12
0 0 1 116 133 48 316 366 198 215 334 275 239 266 6 4 0 0 1 1 1 0 0 0 0 1 1 1 1 1 0 0 0 0 0 0 0 0
0 0 0 0 0 8 51 18 26 32 190 126 96 110 0 1 0 0 0 1 1 0 0 0 0 0 0 1 0 1 0 0 0 0 0 0 1 1
0 0 0 0 0 0 0 21 32 92 78 10 0 17 20 0 0 0 0 0 0 0 1 1 0 1 0 0 0 0 0 0 1 1 1 1 1 1
3 2 2 0 0 0 0 1 0 0 0 11 6 23 17 0 0 0 0 0 0 0 0 1 0 0 0 0 0 1 1 1 1 1 1 1 0 0
6 6 8 1 0 0 1 3 0 0 0 0 2 26 10 1 0 0 0 1 0 0 0 0 0 0 0 0 1 1 0 0 0 0 0 0 0 0
5 5 5 5 1 0 0 1 0 0 1 0 0 4 5 8 0 0 0 0 1 0 0 0 0 0 0 0 0 2 2 1 1 1 2 2 2 2
3 6 3 4 0 0 1 3 10 0 1 1 1 1 1 1 0 0 0 0 0 0 0 0 0 0 0 0 0 0 1 4 4 5 5 4 2 0
2 2 2 4 3 0 0 0 0 0 1 1 1 0 1 1 0 0 0 0 0 0 0 0 0 0 0 0 1 0 0 0 0 1 5 3 2 0
5 4 3 2 5 2 0 0 0 1 1 1 1 1 0 1 1 0 1 1 0 0 0 0 0 0 0 0 0 0 0 0 0 0 0 3 4 3
2 1 1 1 0 0 2 1 0 0 1 1 1 0 0 0 0 0 0 0 0 0 0 0 0 0 0 0 0 0 0 0 0 0 0 0 0 0
0 0 0 0 0 0 0 0 0 1 0 0 0 1 0 0 0 2 0 0 0 0 0 0 0 0 0 0 0 0 0 0 0 0 0 0 0 0
0 0 0 0 0 0 0 0 0 0 0 1 0 0 0 0 0 0 0 0 0 0 0 0 0 0 0 0 0 0 0 0 0 0 0 0 1 0
0 0 0 0 1 0 1 0 0 0 0 0 0 0 0 0 0 0 0 0 0 0 0 0 0 0 0 0 0 0 0 0 0 0 0 0 0 0
0 0 0 0 0 0 0 0 0 0 0 0 0 0 0 0 0 0 0 0 0 0 0 0 0 0 0 0 0 2 0 0 0 0 0 0 0 0
0 0 0 0 0 0 1 0 0 0 0 0 0 0 0 0 0 0 0 0 0 0 0 0 0 0 0 0 0 0 0 0 0 0 0 0 0 1
0 0 0 0 0 0 0 0 0 0 0 0 0 0 0 0 0 0 0 0 0 0 0 0 0 0 0 0 0 0 0 2 0 0 0 0 0 2
0 0 0 0 0 0 0 0 0 0 0 0 0 0 0 0 0 0 0 0 0 0 0 0 0 0 0 0 0 0 0 0 0 0 0 0 0 1
0 0 0 0 0 0 0 0 0 0 0 0 0 0 0 0 0 0 0 0 0 0 0 0 0 0 0 0 0 0 0 0 0 0 0 0 0 0

GFSNE_con_sbcape_141.txt.gz
CAPE
79 2 51 129 213 174 61 3 2 0 0 17 88 76 115 105 32 0 0 0 0 0 0 1 0 0 0 0 0 0 13 30 52 63 50 51 52 54
0 0 13 93 20 83 53 0 6 0 0 13 57 100 119 64 15 0 0 0 0 0 0 1 1 0 0 0 0 0 0 6 28 45 50 49 68 74
22 0 0 2 53 108 186 245 182 30 7 9 69 41 28 31 0 0 0 0 0 0 0 1 1 1 0 0 0 0 0 0 0 20 41 57 65 98
71 40 18 21 68 131 191 287 279 250 330 23 89 9 6 0 1 0 0 0 0 1 1 1 1 1 1 1 1 0 0 0 0 0 4 36 32 49
0 0 108 172 208 116 53 91 96 216 153 136 116 32 0 0 0 0 0 0 0 1 1 1 1 1 1 1 1 1 0 0 0 0 0 4 6 6
0 0 0 0 1 1 3 57 106 122 126 116 87 22 0 0 0 0 1 1 1 1 1 0 0 1 1 1 1 1 0 0 0 0 0 0 0 0
0 0 0 0 0 0 0 0 2 24 32 10 7 7 2 1 0 0 0 0 1 0 1 1 1 0 0 0 0 0 1 1 1 1 1 0 0 0
0 0 0 0 0 0 0 0 0 0 3 14 8 4 3 0 0 0 1 0 0 0 1 1 1 1 0 1 0 1 1 1 1 1 1 0 0 0
3 3 3 1 1 1 0 0 0 0 0 1 17 13 6 0 0 0 0 0 0 0 0 0 0 1 0 0 0 1 1 1 1 1 1 0 1 1
4 2 6 8 3 4 5 2 1 0 0 0 0 0 0 1 1 0 0 1 0 1 0 0 1 3 0 0 0 0 0 1 1 1 1 1 1 1
4 5 9 8 3 4 6 4 0 0 0 0 0 0 0 1 1 0 1 0 1 0 0 0 0 3 0 0 0 1 0 0 0 1 1 1 0 0
5 7 5 6 4 4 7 5 0 0 0 0 0 1 1 1 1 0 0 0 1 1 0 0 0 1 0 0 0 0 0 0 0 0 0 0 0 0
2 4 2 4 2 3 3 4 2 0 0 0 0 0 1 1 0 0 0 0 0 0 0 0 0 0 0 0 0 0 0 0 0 1 5 4 2 0
3 2 0 2 2 1 1 1 0 0 0 0 1 0 1 1 1 1 1 0 0 0 0 0 0 0 0 0 0 0 0 0 0 0 0 3 3 1
2 2 3 1 0 0 1 1 0 0 1 1 0 0 0 1 1 0 1 1 0 1 0 0 0 0 0 0 0 0 0 0 0 0 0 0 0 0
0 0 0 0 0 0 0 0 0 0 1 0 1 0 0 0 1 0 0 0 0 0 0 0 0 0 0 0 0 0 0 0 0 0 0 0 0 0
0 0 0 0 0 0 0 0 0 0 0 0 0 1 1 0 0 0 0 0 0 0 0 0 0 0 0 0 0 0 0 0 0 0 0 0 0 0
0 0 0 0 0 0 0 0 0 0 1 1 0 1 0 0 0 0 0 0 0 0 0 0 0 0 0 0 0 0 0 0 0 0 0 0 0 0
0 0 0 0 0 0 0 0 0 0 0 0 1 0 0 0 0 0 0 0 0 0 0 0 0 0 0 0 0 0 0 0 0 0 0 0 0 0
0 0 0 0 0 0 0 0 0 0 0 0 0 0 1 0 0 0 0 0 0 0 0 0 0 0 0 0 0 0 0 0 0 0 0 0 0 2
0 0 0 0 0 0 0 0 0 0 0 0 0 0 0 0 0 0 0 0 0 0 0 0 0 0 0 0 0 0 0 3 0 0 0 0 0 1
0 0 0 0 0 0 0 0 0 0 0 0 0 0 0 0 0 0 0 0 0 0 0 0 0 0 0 0 0 0 0 0 2 2 1 0 0 0
0 0 0 0 0 0 0 0 0 0 0 0 0 0 0 0 0 0 0 0 0 0 0 0 0 0 0 0 0 0 0 0 0 0 0 1 0 0

GFSNE_con_sbcape_144.txt.gz
CAPE
563 323 327 132 57 16 1 0 0 0 0 0 0 0 0 5 30 3 0 0 0 0 0 0 0 0 0 0 0 0 0 0 0 0 5 28 38 64
595 226 242 43 80 20 9 0 0 0 0 0 0 0 0 24 54 15 2 0 0 0 0 0 0 0 0 0 0 0 0 0 0 0 0 7 18 38
169 70 81 45 38 5 1 0 0 0 0 0 0 0 0 11 14 0 4 0 0 0 0 1 1 1 1 1 0 0 0 0 0 0 0 0 7 26
6 13 16 0 0 0 0 5 20 5 0 0 0 0 0 0 0 0 0 0 0 1 1 1 1 1 1 1 1 0 0 0 0 0 0 0 0 0
0 0 0 0 0 0 1 4 26 38 29 88 62 0 0 0 0 0 0 0 0 0 1 1 0 1 1 1 1 1 1 1 1 0 0 0 0 0
8 6 2 0 0 0 0 0 0 11 37 64 94 22 0 0 0 0 1 1 0 1 0 0 1 1 1 1 1 1 1 1 1 1 1 0 0 0
7 1 5 0 0 0 2 2 0 1 1 6 27 13 0 0 0 0 0 0 1 0 0 1 0 0 0 0 0 1 1 1 1 1 1 0 0 0
6 2 0 1 1 0 1 0 0 2 1 0 2 3 0 0 0 0 0 0 0 0 1 0 0 0 0 0 0 1 1 1 1 0 0 1 1 1
3 3 2 3 4 0 1 0 0 0 0 0 0 0 10 0 0 0 0 0 0 1 0 0 0 0 0 0 1 1 1 1 0 0 0 1 1 1
5 8 7 6 4 7 5 4 2 1 0 0 0 0 1 7 11 3 5 0 1 1 0 0 0 0 0 0 0 0 0 1 1 0 0 0 1 1
6 7 8 5 4 6 5 6 2 0 1 0 0 0 1 0 1 0 1 0 1 0 1 0 1 0 0 0 0 0 0 0 1 1 1 0 1 1
2 4 3 4 4 4 7 6 2 1 1 0 0 0 1 0 1 0 0 0 1 1 0 1 0 0 1 0 0 0 0 0 0 0 1 1 1 0
7 6 2 4 4 6 4 6 4 1 1 1 0 0 1 1 0 0 0 0 0 0 0 0 0 0 0 0 0 0 0 0 0 0 0 0 0 0
6 3 2 6 5 4 2 5 3 1 1 1 1 0 0 1 1 1 1 1 0 0 0 0 0 0 0 0 0 0 0 0 0 0 0 0 0 0
0 0 1 1 1 0 4 5 1 0 0 1 1 0 2 0 0 0 0 0 0 0 0 0 0 0 0 0 0 0 0 0 0 0 0 0 0 0
0 0 0 1 0 0 0 0 2 1 0 0 0 0 1 1 1 0 0 0 1 0 0 1 1 0 0 0 0 0 0 0 0 0 0 0 0 0
0 0 0 0 0 0 0 0 0 2 2 0 0 0 0 1 1 1 0 0 0 0 0 0 0 0 0 0 0 0 0 0 0 0 0 0 0 0
0 0 0 0 0 0 0 0 0 0 0 3 1 0 0 0 1 0 1 1 0 0 0 0 0 0 0 0 0 0 0 0 0 0 0 0 0 1
0 0 0 0 0 0 0 0 0 0 0 0 0 1 0 0 0 0 0 0 0 0 0 0 0 0 0 0 0 0 0 0 0 0 0 0 0 0
0 0 0 0 0 0 0 0 0 0 0 0 0 0 1 0 0 0 0 0 0 0 0 0 0 0 0 0 0 0 0 0 0 0 0 0 0 0
0 0 0 0 0 0 0 0 0 0 0 0 0 0 0 0 0 0 0 0 0 0 0 0 0 0 0 0 0 0 0 3 0 0 0 0 0 0
0 0 0 0 0 0 0 0 0 0 0 0 0 0 0 0 0 0 0 0 0 0 0 0 0 0 0 0 0 0 0 0 3 4 2 0 0 0
0 0 0 0 0 0 0 0 0 0 0 0 0 0 0 0 0 0 0 0 0 0 0 0 0 0 0 0 0 0 0 0 0 0 0 1 1 1